Regional Weather Roundup
Issued by NWS Charleston, SC

Home | Current Version | Previous Version | Text Only | Print | Product List | Glossary On
Versions: 1 2 3 4 5 6 7 8 9 10 11 12 13 14 15 16 17 18 19 20 21 22 23 24 25 26 27 28 29 30 31 32 33 34 35 36 37 38 39 40 41 42 43 44 45 46 47 48 49 50
000
ASUS42 KCHS 272012
RWRCHS

REGIONAL WEATHER ROUNDUP
NATIONAL WEATHER SERVICE CHARLESTON SC
400 PM EDT TUE JUN 27 2017

NOTE: "FAIR" INDICATES FEW OR NO CLOUDS BELOW 12,000 FEET WITH NO
SIGNIFICANT WEATHER AND/OR OBSTRUCTIONS TO VISIBILITY.

NOT ALL STATIONS ARE QUALITY CONTROLLED. USE DATA WITH CAUTION...
ESPECIALLY DEWPOINT OBSERVATIONS.

SCZ027-030-031-034>040-042>050-272100-
...SOUTHEAST SOUTH CAROLINA...

CITY           SKY/WX    TMP DP  RH WIND       PRES   REMARKS
N CHARLESTON   PTSUNNY   85  61  44 S8        30.00F
WATERFRONT PRK   N/A     84  65  52 SE10      30.00F
JOHNS ISLAND   FAIR      86  64  48 E8        30.01S
PINOPOLIS        N/A     84  63  48 CALM      29.94F
MONCKS CORNER  FAIR      84  57  39 CALM      30.01S
SUMMERVILLE    FAIR      86  63  45 N5        30.01F
BEAUFORT MCAS  MOSUNNY   86  73  65 SE5       30.00F HX  93
BEAUFORT ARPT  FAIR      82  68  61 E8        30.00F
HILTON HEAD IS PTSUNNY   86  70  58 NE8       30.01F HX  90
WALTERBORO     PTCLDY    86  63  45 NE7       30.02S
ALLENDALE      FAIR      86  64  48 CALM      30.00F

...SOUTHERN MIDLANDS AND PEE DEE...

CITY           SKY/WX    TMP DP  RH WIND       PRES   REMARKS
GEORGETOWN     FAIR      84  64  51 E9        30.02S
KINGSTREE      CLOUDY    81  68  65 CALM      30.02S
ORANGEBURG     PTSUNNY   84  63  49 NE6       30.02S
BARNWELL       FAIR      86  63  45 N6        30.02S
AIKEN          FAIR      82  61  47 NE8       30.07F
MANNING        FAIR      81  70  69 E12G17    30.03R
COLUMBIA       PTSUNNY   87  58  37 N7        30.02F
SUMTER         MOSUNNY   86  60  41 NW6       30.00F
FLORENCE       PTSUNNY   84  61  45 N10       30.03S
MYRTLE BEACH   MOSUNNY   82  66  57 SE12      30.02F
N MYRTLE BEACH MOSUNNY   82  66  58 S8        30.00F

$$

GAZ063-065-086>088-099>101-113>116-118-119-134>141-150-272100-
...SOUTHEAST GEORGIA...

CITY           SKY/WX    TMP DP  RH WIND       PRES   REMARKS
SAVANNAH ARPT  CLOUDY    81  70  69 SE9       30.01F
HUNTER AAF     NOT AVBL
FORT STEWART   PTSUNNY   73  70  88 E9        30.00R
STATESBORO     MOSUNNY   88  66  48 N7        30.01F HX  90
SYLVANIA       MOCLDY    88  67  51 NE6       30.02F HX  91
CLAXTON        FAIR      85  66  52 N6        30.00F

...CSRA...CENTRAL AND FAR SOUTHEAST GEORGIA...

CITY           SKY/WX    TMP DP  RH WIND       PRES   REMARKS
THOMSON        PTSUNNY   85  57  38 E8        30.09F
AUGUSTA-BUSH   MOSUNNY   89  57  33 N6G17     30.00F
AUGUSTA-DANIEL MOSUNNY   89  55  31 MISG      30.03F
SWAINSBORO     FAIR      82  64  54 N5        30.03S
VIDALIA        CLOUDY    86  66  51 N8        30.01F
EASTMAN        FAIR      86  51  30 N7        30.05S
HAZLEHURST     FAIR      87  67  50 N13       29.99S HX  90
ALMA           LGT RAIN  80  76  87 SE7       29.99S
WAYCROSS       CLOUDY    86  78  77 CALM      29.98S HX  99
JESUP          LGT RAIN  77  68  73 E8        30.01R
BAXLEY         FAIR      90  73  58 NE10G17   29.98S HX  98
BRUNSWICK      PTSUNNY   84  73  70 E9        30.01R HX  91
SAINT SIMONS   CLOUDY    82  71  69 E12       30.00R

$$

SCZ027-028-034-036>038-045-046-048>050-GAZ119-141-272100-
...LAKE AND SUPPLEMENTAL COASTAL OBSERVATIONS...

STATION/POSITION TIME  TEMP    WIND        PRES    WAVE   SWELL
                       AIR SEA DIR/SP/G            HT/PER HT/PER/DIR
                 (UTC) (F)     (DEG/KT/KT) (MB)    (FT/S) (FT/S/D)
WINYAH BAY       NOT AVBL
LAKE MURRAY      1920   83     270/  3/  4 1016.3
ACE BASIN NERRS  1845   84     120/  3     1016.0
FORT PULASKI     1948   79 83  100/ 10/ 13 1016.4F
SAPELO ISLAND    1900   83      80/  8     1016.0

$$

ANZ835-935-AMZ111-154-330-350-352-354-370-450-454-472-272100-
...C-MAN AND BUOY OBSERVATIONS...

STATION/POSITION TIME  TEMP    WIND        PRES    WAVE   SWELL
                       AIR SEA DIR/SP/G            HT/PER HT/PER/DIR
                 (UTC) (F)     (DEG/KT/KT) (MB)    (FT/S) (FT/S/D)
BUOY 41004       1950   80 81   50/  8/ 10 1016.3F   2/ 7   2/140/ 7
BUOY 41008       1950   80 82   60/ 14/ 16 1015.8R   2/ 8   2/120/ 8
FOLLY BEACH CMAN 1900   83      80/  7/  9 1017.3F
CAPERS NEARSHORE 1908   87 84  100/  6/  8 1016.6F
FRIPP NEARSHORE  1908   81 83   90/  8/ 12 1016.1F


STATION/POSITION TIME  TEMP    WIND        PRES    WAVE   SWELL
                       AIR SEA DIR/SP/G            HT/PER HT/PER/DIR
                 (UTC) (F)     (DEG/KT/KT) (MB)    (FT/S) (FT/S/D)
5E ST. MARYS GA  1930      80                N/A     2/ 5
FRYING PAN BUOY  1950   80 81   40/  4/  6 1016.4F   1/ 8   2/140/ 8
BUOY 41025       1950   82 83   CALM  /  2 1016.3F   2/ 6   2/ 80/ 6
CAPE LOOKOUT NC  1900   80     220/  4/  5 1016.2F
BUOY 41002       1950   76 80  260/  6/  8 1016.3F   3/ 5   3/190/ 5
BUOY 41010       1950   84 84  230/  6/  8 1015.4F   3/ 7   2/130/ 7
ST AUGUSTINE FL  2000   78 80   70/  9/ 10 1015.5F


$$




USA.gov is the U.S. government's official web portal to all federal, state and local government web resources and services.